Theta_e
346 349 353 356 355 356 356 356 356 355 355 355 355 355 354 354 354 354 354 353 354 354 354 354 354 354 354 354 354 354 354 354 354 353 353 352 353 352 353 352 353 352 352 350 348 347 348 348 348 348 348 348 348 348 348 348 347 347 347 347 348 348 348 347 347 347 348 348 347 346 346 346 346 345 345 344 344 343 342 343 343 341 341 341 341
345 350 354 354 356 356 356 356 356 355 355 355 355 354 354 354 354 354 354 354 354 354 354 354 354 354 354 354 353 353 353 353 353 353 353 353 353 353 353 352 352 351 350 348 347 347 347 348 348 347 347 347 347 348 347 347 346 347 347 348 348 348 348 348 347 347 347 347 347 347 347 347 347 347 346 345 343 343 342 342 342 340 340 341 340
347 351 354 354 356 356 356 356 355 355 355 354 355 354 354 354 354 354 354 354 354 354 353 353 353 353 353 353 353 353 353 353 353 353 353 353 352 351 351 349 348 348 347 347 346 347 348 347 348 348 347 346 347 347 348 347 347 347 348 348 347 347 347 347 347 347 347 347 347 347 347 347 346 347 347 346 345 344 342 341 340 340 338 340 340
346 350 354 354 356 356 356 356 355 355 354 354 354 354 354 354 354 354 353 354 353 353 353 353 352 352 353 352 353 353 353 353 353 353 352 352 351 350 349 348 348 348 347 346 347 347 347 348 348 348 348 348 348 348 347 347 348 348 348 348 348 347 347 347 346 347 347 347 347 347 348 343 346 346 346 346 345 344 342 342 342 342 342 341 340
348 351 353 353 354 356 356 356 355 355 354 354 354 354 354 354 354 354 354 353 353 353 352 352 352 352 352 352 352 353 353 353 352 352 351 351 349 349 348 348 346 346 347 346 347 347 347 348 348 348 348 348 348 348 348 348 349 349 349 349 348 348 348 347 347 347 346 347 347 346 341 341 344 345 345 346 345 345 344 343 343 343 342 342 341
348 351 352 353 353 355 356 356 355 355 354 354 354 354 354 354 354 354 354 353 353 353 352 352 352 351 352 352 352 352 351 351 352 351 350 349 348 347 347 347 347 346 346 347 347 347 348 348 348 349 348 349 349 349 349 349 350 350 351 350 350 350 350 349 348 348 348 346 346 344 340 341 342 345 346 346 345 344 343 343 342 342 342 341 341
349 351 352 352 353 354 356 356 355 354 353 354 354 354 353 354 354 354 354 353 353 353 353 351 351 350 350 350 349 349 349 350 350 350 349 348 347 347 347 346 346 347 346 346 347 347 348 348 348 349 349 349 349 349 350 350 350 351 350 350 350 349 350 350 351 351 350 349 341 339 339 340 342 344 347 346 346 345 344 343 343 342 341 341 340
350 351 352 352 353 355 356 355 355 354 354 354 354 353 354 354 354 354 353 353 353 352 352 351 350 350 349 349 349 348 349 348 349 348 348 347 346 346 346 346 346 346 346 346 347 348 348 348 348 349 349 350 350 350 350 351 351 351 350 349 350 350 350 348 348 350 351 344 339 338 339 340 341 342 347 346 345 345 345 345 343 342 341 341 340
348 351 352 352 353 354 355 355 354 354 354 354 353 353 353 353 354 354 353 353 353 352 352 351 350 349 348 348 348 348 348 348 348 347 347 346 345 346 346 345 346 346 346 346 346 348 348 348 348 349 350 350 350 349 349 349 349 349 348 348 349 350 346 346 346 349 348 343 341 338 338 340 341 342 346 345 345 345 344 344 344 343 342 341 341
348 350 351 352 352 355 355 355 354 354 354 354 353 353 353 353 353 353 353 353 352 352 352 351 349 349 349 348 347 347 347 347 347 346 346 345 345 346 345 345 346 346 346 345 347 347 347 348 349 349 349 349 349 349 349 349 349 348 348 348 349 347 345 344 341 342 340 342 340 338 339 344 341 341 346 345 345 345 344 344 343 342 342 341 341
348 350 351 351 352 355 355 354 354 354 354 354 354 354 353 352 353 353 353 353 352 351 351 350 349 348 349 348 347 347 346 346 346 345 345 345 345 345 345 345 346 345 345 346 347 348 348 349 349 348 348 348 348 348 349 349 349 349 347 348 348 346 345 342 339 333 336 337 337 337 344 346 342 341 349 345 344 344 344 344 344 343 342 342 341
348 350 350 351 354 355 354 354 354 355 355 354 354 353 353 353 353 353 353 352 352 351 350 349 349 349 349 348 346 346 346 345 345 345 344 344 344 344 345 345 345 345 345 345 347 347 348 349 348 348 347 348 349 349 349 349 349 349 347 347 347 346 344 342 335 334 333 335 336 340 344 345 341 343 347 346 344 345 344 344 344 343 343 342 342
347 349 350 350 352 355 354 354 354 355 355 354 354 353 352 352 353 353 353 352 352 350 349 349 349 349 349 348 346 345 345 344 344 344 344 344 344 344 344 345 345 345 345 345 347 347 348 347 347 347 347 347 348 348 349 349 348 348 346 346 347 347 343 342 335 333 334 333 339 343 343 342 342 345 347 345 345 343 344 344 344 344 343 342 342
346 347 349 349 351 354 354 354 353 354 354 354 353 353 352 352 353 353 352 352 351 351 349 349 349 349 349 347 347 345 345 345 345 344 344 344 344 344 345 345 345 347 347 346 346 346 346 346 346 347 347 347 348 348 348 348 347 347 347 346 346 348 343 336 337 333 335 337 342 340 341 343 342 345 347 346 346 345 345 345 344 343 343 342 342
345 347 349 350 351 351 355 354 354 354 354 353 353 352 352 353 353 353 352 351 351 350 349 349 349 350 349 347 347 346 346 345 345 344 344 345 344 345 345 345 345 347 346 346 346 345 345 345 346 346 346 347 347 347 347 347 347 345 345 346 345 346 343 330 331 331 332 338 343 343 340 341 344 347 347 347 346 345 345 344 343 343 343 342 342
346 346 349 349 350 351 352 354 354 354 353 353 353 352 352 353 353 352 352 351 350 349 349 349 349 350 349 348 347 347 346 345 345 344 344 345 344 344 344 344 344 345 345 346 345 345 345 345 346 346 347 347 347 347 346 346 345 346 345 345 345 346 343 337 328 329 330 336 341 341 339 343 346 348 348 346 345 344 344 344 344 343 342 343 343
347 348 348 348 349 349 350 352 352 353 354 353 353 352 352 353 353 352 351 351 350 349 349 349 350 350 350 348 348 348 347 346 345 345 344 344 344 344 344 344 345 345 345 345 344 345 344 347 345 346 347 347 347 346 345 345 345 346 345 345 345 346 343 337 327 328 332 342 340 338 339 342 348 348 348 346 345 344 343 344 343 343 344 343 342
346 347 348 348 348 349 350 351 352 351 351 352 353 353 352 353 353 352 351 351 350 349 349 349 350 350 350 349 349 349 348 347 346 345 344 344 344 344 344 344 344 344 344 344 344 344 344 345 345 346 345 346 346 346 346 345 344 344 344 345 346 345 341 336 327 328 335 341 336 340 340 346 349 348 346 346 345 343 344 344 344 344 343 343 343
345 347 348 347 347 348 349 350 351 350 350 349 349 351 352 353 353 352 351 350 350 349 349 349 350 350 350 349 350 349 348 348 347 346 344 344 343 344 344 344 344 344 344 344 344 343 344 345 345 344 345 345 345 345 345 344 344 344 344 345 345 342 338 333 328 327 334 338 337 335 343 349 349 348 347 346 345 345 345 344 345 344 344 343 344
345 346 346 347 348 347 349 349 349 349 348 348 348 349 352 352 352 352 352 350 350 350 350 349 350 350 349 349 349 348 347 347 347 346 345 344 344 343 343 344 344 344 344 343 343 343 344 344 344 344 344 345 344 344 344 344 344 344 344 344 343 338 331 330 328 329 331 344 338 341 350 350 348 347 346 345 345 346 345 345 345 345 345 345 344
343 345 345 346 347 347 348 348 348 348 348 348 348 349 350 352 353 352 351 351 350 349 348 350 350 350 349 348 348 345 342 344 343 343 346 345 344 344 343 343 343 343 343 343 343 343 343 343 343 343 344 344 345 344 343 342 343 342 342 341 336 331 331 331 329 332 335 339 342 349 350 349 347 346 346 346 346 346 345 343 346 346 345 344 344
340 342 345 346 346 346 347 347 348 348 348 348 348 349 349 351 350 350 350 350 350 349 346 347 349 346 349 347 343 344 338 337 338 346 344 345 343 344 344 343 342 342 342 343 343 343 343 343 343 344 344 344 343 338 336 338 339 339 339 337 329 330 330 330 329 331 333 339 346 350 349 348 347 346 346 346 346 346 345 345 345 344 344 344 343
338 340 342 344 345 346 347 346 347 347 347 347 347 348 347 348 348 349 349 351 349 349 346 348 344 343 344 342 343 340 336 337 339 343 344 346 344 345 344 344 343 342 342 342 342 342 343 343 343 343 343 341 336 333 334 334 332 336 334 330 329 329 330 330 331 333 335 345 348 349 349 348 347 347 346 344 347 346 344 344 342 340 340 339 339
338 340 341 344 344 345 345 346 347 347 347 346 347 347 346 347 347 348 346 347 347 347 344 345 343 342 341 339 339 339 338 335 347 346 346 344 342 344 345 345 345 343 344 343 342 343 342 339 339 340 337 333 332 332 333 332 332 330 330 329 329 329 330 330 332 338 342 348 349 349 349 348 346 345 346 346 344 344 344 342 340 339 338 337 336
338 340 341 341 343 344 345 345 346 346 346 346 345 346 347 347 348 348 347 346 345 345 343 343 342 341 339 339 337 338 335 334 335 337 336 338 334 333 335 335 335 332 343 330 329 328 330 327 328 331 329 331 331 331 331 331 332 331 330 330 330 330 330 332 334 338 341 347 349 349 347 346 345 344 344 344 343 345 343 341 340 338 336 335 334
339 338 339 341 342 344 345 345 346 345 345 346 345 346 348 346 346 348 347 347 347 345 342 342 341 340 338 339 339 336 333 333 331 333 334 334 334 332 332 330 330 331 335 330 328 329 329 329 330 331 331 330 330 330 330 334 331 330 330 330 330 330 329 331 337 338 341 346 349 348 346 344 341 342 343 344 343 343 342 341 339 338 335 334 334
337 337 340 341 342 343 344 344 345 345 345 346 345 345 346 346 346 348 346 346 347 345 344 343 341 339 338 339 338 334 333 331 330 330 332 331 332 333 332 331 331 330 332 330 330 329 329 330 330 331 329 329 329 329 329 329 329 329 330 331 333 329 330 334 337 338 342 346 347 345 346 345 344 343 344 345 343 343 342 340 338 336 335 332 331
337 338 339 340 342 342 343 344 344 344 344 345 345 344 346 345 345 346 346 347 346 344 344 343 341 339 339 338 340 335 333 331 331 329 331 330 333 333 331 330 331 331 330 330 329 329 329 329 330 330 329 329 329 334 337 338 338 335 336 337 335 330 331 335 337 340 343 345 346 345 344 345 344 343 344 343 343 342 340 339 337 335 333 331 330
336 337 339 340 341 343 343 343 344 344 343 345 344 343 346 345 345 344 344 347 345 345 344 343 341 340 339 338 340 334 332 332 330 331 329 330 331 331 331 331 330 330 329 328 329 329 328 328 328 328 328 328 333 335 337 338 338 338 337 337 336 332 334 336 338 341 344 344 343 343 344 343 343 341 341 340 339 339 338 338 336 334 332 330 329
337 337 338 339 341 343 342 343 343 343 343 344 343 343 345 344 344 344 343 345 344 345 345 343 342 339 337 337 338 335 333 332 331 329 329 330 330 330 330 329 329 329 329 328 328 328 329 327 327 329 331 332 334 335 340 337 337 337 335 336 335 334 335 336 338 342 343 343 342 342 343 342 341 341 339 338 339 338 336 336 335 334 332 329 328
337 337 338 339 341 342 341 343 343 344 343 343 343 343 345 344 343 344 344 344 344 345 344 343 342 339 338 337 337 337 334 332 331 329 328 329 329 329 329 328 327 327 328 328 328 329 329 328 330 333 334 333 335 335 337 336 335 333 330 331 333 334 335 337 340 342 343 343 341 341 340 341 340 338 337 337 337 337 336 335 333 332 332 330 326
335 336 337 339 340 341 341 342 342 343 343 343 343 342 344 344 343 343 344 344 344 344 343 342 342 340 338 337 336 336 337 332 331 329 328 328 328 328 328 328 329 327 329 328 328 331 330 331 336 336 336 335 336 337 336 336 333 327 329 330 332 334 335 338 340 341 341 341 340 339 339 339 340 339 338 338 337 337 336 335 334 333 331 331 326
333 335 337 338 339 340 340 341 342 342 342 342 342 343 343 343 343 343 344 344 344 343 342 342 342 340 338 337 336 336 337 333 331 330 334 328 328 327 328 330 330 329 329 330 330 332 334 338 337 338 336 337 336 335 336 332 328 327 329 331 334 334 336 338 339 340 339 338 337 337 337 337 336 337 336 335 333 333 332 332 331 330 330 330 329
335 336 336 336 339 340 341 341 341 341 342 342 342 342 342 343 343 343 344 344 343 343 342 342 342 341 339 337 337 336 336 334 332 330 330 328 327 328 328 330 331 333 332 331 331 334 336 336 335 334 339 336 333 333 331 329 328 328 330 331 333 334 336 337 338 338 337 336 336 335 334 334 333 333 332 331 330 330 329 327 326 325 325 326 327
335 334 335 335 338 339 340 340 341 341 341 341 341 341 342 342 342 342 343 343 343 342 342 341 341 340 338 338 338 337 336 334 333 332 330 330 329 328 330 332 333 334 333 333 334 335 335 335 334 335 332 333 331 334 328 327 328 328 330 333 333 335 336 336 336 336 335 334 334 333 332 331 330 330 329 327 328 327 325 324 324 323 324 324 324
334 334 335 336 336 337 339 339 340 340 340 341 341 341 341 342 342 343 342 343 342 342 342 341 340 339 338 337 337 337 337 335 333 332 331 331 330 330 331 333 335 335 335 336 336 334 332 333 335 333 331 333 332 330 329 327 328 329 331 332 333 334 334 334 334 333 333 332 332 331 331 331 331 329 328 326 325 324 324 323 323 323 323 323 324
335 334 334 335 336 336 338 336 337 338 339 340 340 340 340 341 341 340 341 342 342 341 341 340 339 338 337 337 336 337 337 335 334 333 332 332 331 331 332 334 335 335 336 335 335 334 334 334 332 334 330 331 330 327 327 328 328 328 327 325 326 329 330 332 332 332 332 331 332 332 332 331 329 330 325 323 323 323 323 323 323 322 322 322 322
335 335 334 334 335 335 336 335 336 338 338 339 339 338 339 339 340 340 341 341 341 341 340 339 338 338 337 336 336 336 336 335 334 334 333 333 332 333 332 333 334 335 335 334 333 332 333 332 330 331 331 329 327 327 327 328 327 324 323 323 324 326 328 331 332 333 331 330 330 329 328 328 326 323 321 320 319 319 318 320 322 321 320 320 321
335 334 334 334 334 334 336 336 336 336 337 338 338 337 337 337 338 338 339 339 339 339 339 338 338 337 336 336 335 335 337 334 334 335 333 335 333 332 332 333 334 335 334 332 331 331 330 329 331 331 333 330 328 328 328 326 323 322 321 322 323 325 328 331 331 330 329 329 329 329 327 325 322 321 320 319 317 316 316 316 315 317 318 319 319
334 334 334 334 333 334 335 335 335 336 337 337 337 336 335 335 335 337 337 337 337 338 338 338 337 336 337 336 335 334 335 335 334 335 334 334 332 333 333 333 334 334 332 331 330 330 330 330 330 331 328 329 330 328 327 324 322 321 322 321 323 325 326 328 329 329 328 327 326 325 324 323 322 320 318 316 316 315 314 314 316 314 315 318 318
333 333 333 333 333 333 334 333 335 336 337 336 337 336 334 334 335 335 335 337 337 337 337 336 336 336 337 335 335 334 334 335 335 335 333 337 333 334 335 335 335 334 332 332 331 330 330 331 331 330 327 326 327 328 325 324 320 318 319 320 320 322 323 321 321 321 320 321 322 323 322 321 319 317 316 316 315 314 313 313 313 313 313 314 315
332 333 332 333 333 333 333 333 334 336 337 337 337 336 335 334 334 334 335 335 335 335 335 335 336 336 336 335 335 334 334 334 336 335 334 333 332 334 335 335 335 333 332 331 329 333 331 329 329 327 327 326 325 327 326 323 319 316 315 315 317 319 320 319 319 319 319 318 318 319 319 318 316 316 316 314 313 313 312 312 312 312 312 313 314
333 333 333 332 332 333 333 334 334 335 336 337 337 335 335 334 334 332 335 333 336 337 336 336 337 336 335 335 335 334 334 334 336 336 334 332 332 334 335 335 335 335 331 329 330 329 328 329 329 329 324 327 327 328 326 324 319 319 317 315 313 313 315 317 318 318 317 316 316 316 317 316 314 314 313 312 312 312 311 311 311 312 312 313 314
332 332 332 332 333 333 333 333 334 335 336 337 337 336 336 334 335 335 336 336 334 335 335 334 334 334 333 334 334 334 334 334 335 335 334 332 332 334 335 335 334 335 333 331 329 329 327 327 328 329 327 323 325 325 328 325 321 318 315 315 313 312 309 310 313 315 316 314 314 313 314 313 313 312 312 311 311 311 310 310 310 311 311 312 312
332 332 333 332 333 333 333 333 334 334 336 337 337 336 336 333 334 333 333 333 331 332 331 330 332 333 333 332 333 334 334 334 334 335 334 332 332 333 334 335 334 333 332 331 330 330 330 330 329 329 328 325 323 324 326 326 323 327 319 314 313 311 310 311 311 311 316 313 312 313 313 312 311 311 310 310 310 310 310 310 310 310 310 311 311
332 333 334 334 334 333 334 334 334 334 335 336 337 336 335 333 332 331 330 330 329 329 329 330 329 330 332 331 332 333 334 333 333 334 334 333 331 332 333 334 333 333 332 331 330 330 330 330 330 330 329 328 325 323 321 326 326 325 324 323 320 315 310 312 310 304 312 313 312 311 311 311 311 310 310 309 310 310 311 309 310 310 310 310 310
332 334 334 334 334 334 334 334 334 334 335 336 336 336 334 334 333 332 332 331 330 329 330 331 331 331 332 331 332 331 333 333 332 332 333 333 331 331 332 334 334 333 333 330 330 330 331 331 332 330 330 329 326 322 323 323 322 321 321 321 325 321 316 312 307 306 303 309 310 310 309 309 309 309 309 309 309 309 310 311 309 309 309 309 310
333 333 334 334 334 334 334 334 334 335 336 336 335 336 334 334 333 333 333 332 331 330 330 329 331 331 330 330 330 330 331 332 331 331 332 333 331 331 332 333 333 333 333 331 331 331 332 332 333 331 330 330 327 323 322 323 321 321 321 322 323 319 317 317 312 309 305 301 303 307 309 308 309 309 309 308 308 308 308 309 309 309 309 308 308
333 332 334 334 335 334 334 334 334 334 335 336 335 335 336 334 334 333 332 333 332 330 329 330 330 331 329 328 329 329 329 329 330 330 330 331 333 331 331 333 333 333 335 331 331 332 332 331 330 329 328 330 328 326 322 322 323 318 317 318 318 318 315 315 315 311 306 302 301 303 303 306 308 308 308 309 309 310 310 310 310 308 310 308 308
334 334 334 334 334 334 334 333 333 334 335 335 335 335 335 335 333 333 332 331 330 327 329 328 328 329 329 328 328 327 327 328 328 329 330 331 332 332 332 332 333 334 335 332 331 331 330 330 329 329 328 329 327 326 323 322 320 319 318 317 316 314 312 312 311 309 308 308 301 301 303 303 302 304 308 308 308 307 307 307 307 307 307 307 308
332 332 333 334 334 334 333 333 333 334 335 335 335 334 335 334 334 333 332 330 328 327 327 326 327 328 328 326 326 326 326 327 329 329 329 330 331 332 332 332 333 335 334 331 330 329 328 327 325 325 326 325 324 323 321 321 319 317 317 318 317 316 313 311 309 309 308 304 303 302 303 304 303 303 305 308 308 307 307 307 306 306 307 307 308
Wind_Speed
9 12 11 14 14 15 16 16 17 17 18 18 17 17 17 17 16 17 17 16 16 15 16 15 16 16 16 16 16 15 15 15 14 13 13 13 13 12 12 12 12 12 13 13 12 11 11 12 12 12 12 12 12 12 12 12 12 12 12 12 12 11 11 10 11 11 10 10 10 10 10 10 11 10 10 10 11 10 10 10 8 6 4 8 10
16 12 10 12 15 15 17 16 17 18 18 18 17 17 17 16 16 16 16 15 16 15 15 15 15 16 16 15 16 15 15 14 14 14 14 13 12 12 12 12 12 12 12 12 11 11 11 11 12 12 12 12 12 12 11 11 11 10 10 10 10 10 9 9 9 9 10 10 10 10 11 10 10 10 10 10 10 10 9 10 10 5 4 10 10
14 14 11 13 16 15 17 17 17 18 18 17 17 17 17 17 16 16 16 16 15 15 15 15 15 15 16 15 15 15 14 14 14 14 14 13 13 13 12 12 12 12 12 11 12 11 11 11 12 12 11 11 12 11 11 10 10 9 8 7 7 7 9 8 8 8 9 9 10 10 10 10 9 9 9 9 9 10 9 9 9 7 7 11 10
15 13 12 15 18 15 16 18 18 18 18 18 17 17 16 17 16 16 15 15 15 15 15 15 15 15 15 15 15 14 15 14 14 14 13 13 13 12 12 12 12 12 12 12 12 11 11 11 11 11 11 11 10 10 10 9 8 8 7 6 5 5 4 7 8 8 8 7 7 5 3 3 5 8 9 9 9 9 9 9 9 10 10 10 11
15 13 11 12 13 15 16 18 18 18 19 18 17 17 17 16 16 16 16 14 15 14 14 14 15 15 14 14 14 14 14 14 14 13 12 12 12 12 12 12 11 11 11 12 11 11 11 11 11 11 11 10 10 10 9 8 8 7 6 4 3 3 3 3 6 7 8 8 7 4 3 3 2 6 8 9 9 9 8 8 9 9 10 10 10
15 13 12 11 11 13 17 17 18 19 19 17 17 16 17 16 16 16 15 15 15 15 15 14 14 14 14 14 14 14 14 13 12 12 12 12 12 11 11 12 11 11 11 10 10 11 10 11 11 11 11 10 10 9 8 7 7 6 5 4 2 1 1 2 4 6 7 8 8 3 3 2 2 3 7 7 8 8 8 8 8 9 9 10 9
18 12 11 11 10 13 17 18 18 18 18 18 17 17 16 17 17 16 15 15 14 14 14 14 13 13 13 13 13 13 13 12 11 12 13 12 11 11 11 11 11 11 11 10 10 10 10 10 11 11 10 10 10 9 8 7 6 6 5 4 3 2 2 1 4 7 7 5 4 4 2 1 1 1 7 6 8 8 8 8 8 8 9 9 9
13 12 11 11 10 15 19 18 19 19 18 17 17 16 16 16 16 16 15 15 14 14 14 13 13 13 12 12 11 12 12 12 12 12 12 11 11 10 11 11 11 10 10 10 10 10 10 10 10 11 11 10 10 9 8 7 6 6 6 5 5 5 4 4 3 7 9 5 4 4 3 2 1 1 6 6 7 8 7 8 7 8 8 9 9
12 12 11 10 10 19 18 18 19 19 18 17 17 16 16 16 15 15 15 15 14 15 14 13 14 13 12 12 11 11 11 11 12 12 11 10 10 10 10 10 10 10 9 9 9 8 8 9 10 10 10 10 9 9 7 7 7 7 8 7 7 7 7 8 7 6 6 4 5 4 4 3 1 1 4 6 6 7 6 7 7 8 8 7 9
11 12 11 9 10 19 18 18 18 18 18 18 17 16 15 15 15 15 15 15 15 15 14 13 14 13 13 12 12 11 11 10 11 10 10 10 10 10 10 9 10 10 9 8 8 7 7 8 9 9 9 9 9 8 8 7 8 8 8 8 8 8 10 10 9 5 3 4 5 5 4 4 1 1 2 5 5 5 6 7 4 5 5 7 9
12 11 10 10 12 18 17 18 18 18 18 18 17 16 16 15 15 15 15 15 15 14 14 13 14 14 13 12 12 11 11 11 10 10 10 10 10 9 10 9 9 9 8 8 7 7 7 7 8 8 8 8 8 8 8 8 8 9 8 8 7 8 9 9 7 4 3 4 4 4 5 7 2 1 2 7 7 6 6 6 6 5 5 7 8
13 11 11 9 14 17 17 17 18 18 19 18 17 16 15 15 15 15 15 15 15 14 14 14 14 13 13 12 11 10 10 10 10 10 10 10 10 10 9 9 8 8 8 7 6 6 6 7 7 7 7 8 8 8 8 8 9 9 9 9 8 8 8 8 5 4 3 4 4 4 4 5 3 2 4 6 6 6 6 6 6 5 5 6 6
15 12 11 10 10 16 16 17 18 18 18 18 17 16 16 15 15 15 15 15 14 14 14 14 13 13 12 11 11 10 10 10 10 10 10 10 9 9 9 9 8 7 7 6 5 5 6 6 6 7 7 8 8 8 8 8 8 10 9 8 8 7 7 8 5 5 4 4 4 4 4 4 3 2 4 6 5 6 5 6 5 6 6 6 5
15 13 11 10 9 17 17 16 16 17 17 17 17 16 16 15 15 14 13 14 14 13 13 13 13 12 12 11 11 10 10 10 10 10 10 10 10 9 8 9 8 7 7 5 4 5 5 5 6 7 7 8 8 8 8 8 8 9 8 8 7 7 8 5 5 5 4 4 4 4 4 4 3 1 4 5 5 5 5 5 5 5 5 5 6
16 16 14 11 11 11 19 16 16 16 16 15 15 15 15 14 13 13 13 13 13 13 13 12 12 13 12 12 11 10 10 10 10 10 10 10 9 9 9 9 8 7 5 4 4 4 4 5 6 7 8 8 8 8 8 8 8 9 8 8 8 8 9 5 4 4 4 3 4 4 4 3 3 1 5 4 4 5 5 5 4 4 3 4 6
11 16 15 12 12 11 12 16 17 16 15 15 15 15 14 13 12 13 13 13 13 13 13 12 12 13 13 12 11 11 10 10 10 10 10 10 10 9 9 9 8 6 4 4 3 3 4 5 6 7 7 8 8 8 8 8 8 7 7 8 7 8 9 6 5 5 4 4 4 3 3 3 3 2 3 4 4 4 3 3 3 3 3 6 9
11 13 12 12 12 10 10 11 13 19 15 15 14 15 14 13 13 13 13 14 13 13 12 12 12 13 13 12 12 11 11 10 10 9 9 9 9 8 8 7 6 4 4 3 3 3 4 5 6 7 8 8 8 8 8 8 8 7 7 6 6 7 8 7 5 5 3 4 3 4 3 3 3 2 2 4 6 6 3 2 3 7 6 7 6
10 12 12 12 11 10 10 10 12 11 10 14 15 16 15 14 14 14 14 14 13 13 12 11 11 12 13 13 12 12 11 11 10 9 9 8 7 7 7 6 5 4 3 2 2 3 4 5 7 8 8 8 8 7 7 6 6 7 6 5 5 7 8 7 5 4 4 4 5 4 3 3 5 3 2 5 6 3 1 5 6 8 6 7 6
10 10 10 12 11 9 9 9 10 9 10 8 8 13 16 16 15 15 15 15 14 13 13 12 12 12 14 13 12 13 12 11 10 9 8 7 7 6 6 5 5 4 2 1 1 3 4 5 7 7 7 7 6 6 5 5 5 5 5 4 5 6 7 4 4 4 4 4 5 4 3 6 5 3 3 5 5 4 5 8 10 6 9 8 10
9 10 10 10 10 10 9 8 8 9 8 7 8 8 13 15 15 15 15 14 14 14 13 12 12 12 13 13 12 9 9 8 11 7 8 7 6 5 5 5 4 3 2 0 1 2 4 5 6 6 6 6 6 7 7 7 5 5 5 5 5 6 4 4 4 4 4 5 4 4 7 8 5 5 7 6 5 7 9 8 11 13 14 15 15
7 9 9 10 11 10 10 9 9 10 9 8 7 7 10 15 12 15 15 15 14 14 13 13 13 11 10 11 9 5 4 4 5 4 8 4 6 6 5 4 4 3 2 1 1 2 3 4 4 5 5 6 7 8 8 8 7 7 6 5 5 3 3 4 4 4 4 4 5 5 10 8 7 7 7 7 7 9 12 13 18 19 19 19 19
10 9 8 9 11 10 11 10 9 10 9 7 6 6 7 11 8 8 8 10 11 11 10 7 9 5 10 8 4 3 3 4 3 6 3 4 4 6 5 4 4 3 2 2 3 2 3 3 4 4 5 5 7 4 5 6 8 8 7 6 3 3 3 4 5 4 5 4 5 7 10 9 8 8 9 7 12 16 17 19 20 20 21 20 20
9 9 8 9 8 8 9 10 9 10 10 9 7 7 7 6 7 7 6 9 8 8 5 6 4 5 4 4 4 3 3 3 3 3 3 6 4 6 6 5 4 4 4 3 3 4 4 4 4 4 4 5 4 3 4 4 4 6 5 4 4 4 4 5 5 5 5 5 5 10 10 9 9 11 12 13 17 19 20 21 21 20 20 19 19
10 9 9 7 8 8 9 10 10 10 10 8 7 7 6 7 6 6 5 6 6 5 5 5 5 4 4 4 4 3 3 4 5 8 7 3 3 6 6 7 6 5 5 2 4 4 5 5 6 6 4 3 3 3 3 3 3 4 4 4 3 3 4 5 5 5 5 6 6 12 11 12 14 14 14 16 18 20 21 21 20 20 19 19 19
8 8 8 9 10 10 10 10 10 10 9 8 8 8 7 7 6 6 6 5 5 5 5 5 5 5 4 4 4 3 4 3 1 0 2 2 3 2 2 1 1 1 3 2 2 3 3 4 4 5 4 4 4 4 4 4 3 3 3 3 2 3 4 4 5 6 6 6 7 11 14 14 14 15 18 18 18 21 21 20 20 20 20 19 18
7 8 10 9 11 10 10 9 10 10 10 9 9 8 8 8 8 7 6 6 6 6 5 5 5 5 4 4 4 4 4 3 2 1 1 1 3 3 4 2 1 1 1 2 2 3 3 3 4 5 5 4 3 3 3 3 4 3 2 1 3 4 4 4 5 6 6 7 8 14 15 16 16 12 17 19 20 20 20 20 21 20 20 19 18
8 8 8 8 9 9 10 9 9 10 10 8 8 8 7 7 7 6 7 6 6 7 6 5 5 5 5 4 5 4 4 4 3 3 4 3 3 4 3 2 2 1 1 1 3 2 3 4 4 5 5 4 3 3 4 4 3 3 2 1 3 4 4 5 6 6 6 7 9 15 15 15 16 16 18 20 20 20 20 20 20 20 19 19 19
7 8 8 9 9 10 10 10 9 10 9 9 8 8 6 8 8 7 7 7 7 7 7 6 5 5 5 5 5 5 5 4 4 4 4 3 4 3 2 1 1 2 1 1 3 3 3 3 4 5 4 3 3 3 3 3 3 2 3 1 4 5 4 5 7 7 7 7 8 12 15 17 17 18 19 20 20 20 20 20 19 20 19 19 19
9 9 8 9 11 10 12 11 9 11 9 8 8 8 6 8 7 7 7 8 7 6 6 5 5 5 5 5 4 5 4 4 4 4 3 4 3 2 2 2 2 2 2 2 3 4 4 4 4 4 4 3 2 3 4 4 3 2 2 2 4 5 6 6 8 8 8 7 8 11 18 18 17 18 19 19 19 18 18 19 18 18 18 19 19
10 11 11 10 10 11 13 13 12 11 10 9 7 8 7 8 8 7 6 7 6 6 6 5 5 5 5 5 4 5 5 5 5 3 4 4 2 1 2 2 3 3 3 4 4 4 4 3 3 3 3 2 2 3 3 4 4 4 2 1 4 5 6 7 8 9 8 7 8 10 18 18 18 17 18 18 19 18 18 18 19 18 18 18 18
11 12 12 11 10 12 13 13 10 10 9 9 8 8 7 7 7 7 6 7 6 5 5 5 5 5 5 5 5 4 4 4 4 4 2 2 2 3 3 2 3 3 4 4 3 4 3 4 3 3 3 2 3 3 3 4 4 3 2 3 5 6 6 8 10 10 10 8 8 9 13 20 19 17 17 17 18 19 18 18 19 17 18 18 17
11 13 11 10 11 14 12 12 10 11 9 9 9 8 7 8 7 7 6 7 6 6 6 5 5 5 4 5 5 5 4 4 4 3 3 3 3 3 2 3 4 3 4 4 4 3 3 3 3 2 1 1 3 4 2 3 4 3 5 6 6 7 7 9 10 11 10 8 7 9 9 13 20 20 20 19 19 19 19 19 18 18 17 17 16
4 6 9 11 13 12 11 12 11 11 10 10 9 7 7 7 7 7 6 6 6 6 6 6 5 5 4 5 5 5 4 5 4 4 3 4 3 3 3 4 3 3 4 5 4 3 2 2 2 1 1 3 3 3 3 2 3 5 5 6 6 7 6 10 11 11 10 9 7 7 7 8 12 19 21 20 20 19 20 20 19 18 17 16 16
8 7 7 11 9 8 8 9 11 11 11 8 8 7 7 7 7 6 6 6 6 6 6 5 6 5 4 5 5 5 5 4 4 3 3 3 3 3 4 4 3 4 4 4 4 3 2 1 2 1 3 3 2 2 2 5 5 5 6 5 6 6 7 10 11 10 9 8 7 7 7 7 8 8 12 19 19 18 19 18 17 16 15 15 16
8 8 10 8 8 8 8 8 12 11 12 10 10 8 7 6 7 6 7 7 6 6 6 5 5 5 5 5 5 5 5 5 5 4 4 3 3 3 4 4 3 3 3 3 3 2 2 2 1 2 2 2 1 3 4 6 6 7 6 5 7 7 10 11 11 10 9 9 8 8 7 7 7 8 8 8 15 18 18 17 16 15 15 15 15
12 10 9 9 9 8 8 8 12 12 12 11 10 9 9 7 7 7 6 7 6 7 6 5 5 5 5 5 5 5 5 5 5 4 4 4 4 4 5 3 3 3 3 3 3 3 2 1 1 1 2 1 3 5 5 7 7 7 6 6 7 8 9 9 11 10 8 8 9 8 8 8 8 9 9 7 8 12 17 16 16 16 16 16 15
11 11 11 10 10 8 8 8 11 12 11 11 10 9 8 8 7 8 8 7 7 7 6 5 5 5 5 5 5 5 5 5 5 4 4 4 4 4 3 4 4 4 3 3 4 3 3 3 1 0 3 4 6 7 7 6 7 7 7 7 6 8 9 9 10 9 8 10 10 9 8 9 10 11 7 7 6 6 13 16 16 17 17 16 17
11 12 12 12 12 10 8 8 8 9 9 10 10 9 8 8 7 7 7 8 8 7 6 5 5 5 5 5 5 5 5 5 5 4 5 4 4 4 4 4 5 4 4 4 2 2 4 4 3 0 2 4 6 8 7 7 7 7 7 8 7 8 8 8 8 8 9 10 10 9 9 9 9 8 7 6 6 6 5 10 13 16 18 17 18
10 12 11 11 10 10 9 9 9 9 9 9 8 8 8 7 6 7 7 7 7 7 6 5 6 5 6 6 5 5 5 5 5 4 5 4 4 4 5 5 5 5 4 4 3 3 4 3 4 5 7 6 8 7 8 8 9 8 8 9 10 9 7 7 7 7 8 10 10 10 8 9 8 7 7 6 5 5 6 5 5 5 9 18 17
9 11 12 12 12 10 9 9 9 9 8 8 7 7 7 7 7 6 7 7 6 6 5 5 5 6 6 6 6 6 5 5 5 5 5 5 5 5 5 4 5 5 5 5 5 5 6 5 5 8 10 8 7 10 12 11 8 11 10 11 11 9 9 8 8 7 7 8 9 9 9 8 7 7 7 6 5 5 5 5 5 5 5 10 17
10 12 12 13 14 14 13 13 10 10 9 9 9 9 9 8 7 8 8 7 7 6 5 5 5 5 5 6 6 6 5 5 5 5 5 5 5 5 5 5 4 5 6 7 6 6 4 5 5 7 12 8 6 7 8 11 11 9 9 11 11 9 8 10 10 8 7 6 7 9 8 7 7 7 6 5 5 5 5 6 5 5 4 4 6
11 13 15 15 13 13 14 12 11 11 11 10 9 8 7 8 7 6 6 6 6 7 6 5 5 5 5 5 5 5 6 6 6 6 6 6 6 6 6 6 6 5 4 4 4 4 4 4 4 6 4 9 5 5 5 7 5 8 9 7 9 9 8 8 8 7 6 6 6 7 7 7 7 6 4 5 5 5 5 5 5 4 4 4 4
13 14 12 11 13 14 13 13 12 12 11 10 9 9 7 6 6 5 7 5 5 6 6 5 5 6 6 6 5 5 6 6 6 6 6 6 6 7 7 6 6 5 4 4 5 5 4 6 6 7 8 4 4 6 9 0 7 4 8 10 7 6 5 7 8 8 7 6 6 7 7 7 8 5 4 4 5 5 4 4 4 4 4 4 5
11 10 12 15 13 13 13 14 13 12 11 10 9 8 8 6 5 6 8 7 6 5 5 3 3 3 5 5 5 5 6 6 6 6 6 6 7 7 6 6 6 6 6 6 5 5 4 4 5 4 10 9 4 3 5 4 8 12 4 1 4 6 8 3 5 6 7 7 7 6 6 6 6 5 3 5 4 4 3 3 4 3 3 4 4
12 14 14 14 12 16 15 14 13 12 10 10 10 8 7 5 5 3 3 3 2 4 5 5 5 4 3 4 6 5 6 6 6 6 7 7 6 6 7 6 6 5 5 5 6 7 7 6 6 5 8 12 9 6 8 4 8 1 9 7 4 1 3 7 8 5 4 5 6 6 6 7 5 4 4 4 3 2 3 4 3 4 4 4 4
13 14 15 16 13 12 13 13 11 10 10 10 10 9 8 9 8 8 8 7 7 7 8 7 6 6 6 3 3 5 5 5 6 6 6 6 7 6 6 6 6 5 5 5 5 4 5 5 6 6 6 8 12 9 5 3 5 5 3 1 5 7 11 9 5 5 4 6 5 5 5 5 4 4 3 4 4 3 3 4 4 4 4 4 3
15 14 12 13 14 13 14 14 12 11 10 10 11 9 9 9 11 11 9 9 9 4 4 6 7 6 5 6 5 4 5 6 6 6 6 6 6 6 6 6 6 6 5 5 5 6 5 5 4 5 5 5 8 8 11 10 7 4 2 0 2 6 15 13 3 8 6 2 4 3 4 4 4 3 4 3 3 3 3 3 4 3 3 3 3
15 12 12 12 14 16 15 15 12 12 11 10 12 11 11 10 10 10 9 9 8 7 7 6 5 5 6 6 5 5 5 5 6 5 5 6 6 6 5 5 6 6 6 6 6 5 4 4 5 5 3 4 5 8 10 11 12 6 0 3 5 9 11 3 16 13 10 11 5 3 4 4 4 3 3 3 3 3 4 4 3 3 3 3 2
12 12 14 15 14 13 14 13 13 12 11 13 13 12 11 11 11 10 9 7 7 6 6 6 7 6 6 4 5 5 4 4 5 6 5 6 6 6 6 6 5 6 5 5 5 6 7 6 5 5 5 5 5 4 9 10 10 6 5 4 9 9 3 5 4 7 8 10 5 5 6 2 4 4 3 3 2 3 3 3 3 3 3 3 3
11 11 10 8 8 10 13 15 14 12 12 13 13 13 12 11 11 10 11 7 6 5 6 7 7 7 7 6 5 5 5 4 4 5 5 5 6 6 6 6 6 6 5 5 5 5 5 5 6 6 5 5 3 4 6 7 5 8 6 7 7 6 6 5 4 6 6 4 12 10 8 8 7 1 2 3 3 4 4 3 3 3 3 3 2
6 8 9 11 11 12 13 15 14 11 12 13 14 14 12 11 11 11 11 10 8 8 7 7 6 6 7 6 5 5 4 4 4 3 5 5 5 5 5 5 5 5 5 5 6 5 4 4 2 2 3 5 4 5 4 5 6 5 8 7 10 12 11 9 10 8 8 8 8 7 6 4 7 8 1 2 3 3 3 2 3 3 3 3 2
Wind_Direction
171 154 155 153 159 159 155 150 146 140 131 128 127 125 126 125 123 123 122 123 123 122 122 122 121 120 120 119 119 119 116 115 113 111 109 109 108 101 100 101 99 94 89 89 91 91 91 90 91 92 92 92 91 90 88 84 83 88 86 84 81 80 82 84 89 87 85 83 85 87 93 100 102 100 99 96 94 91 87 83 79 78 75 73 67
161 157 151 152 158 160 156 151 146 140 133 131 129 130 129 127 127 125 125 125 125 125 124 123 123 122 122 121 121 120 119 116 114 113 110 106 104 104 102 95 90 90 92 94 96 97 96 94 92 91 91 91 90 90 90 90 88 80 81 80 80 83 83 85 87 91 90 90 91 95 104 110 108 108 104 100 96 90 89 88 83 78 84 77 70
139 149 150 153 159 160 156 150 147 140 135 133 133 133 132 131 130 128 127 127 128 127 126 124 124 123 123 122 121 121 119 116 116 112 112 113 108 100 96 96 95 96 99 102 102 100 97 94 91 91 89 89 87 86 84 86 89 91 87 85 82 74 89 95 94 94 98 101 103 102 104 107 109 111 113 107 100 95 94 93 90 86 76 74 70
139 150 149 156 159 157 156 151 146 140 136 137 136 136 135 134 133 132 130 129 128 128 128 127 126 125 124 125 124 122 120 120 117 117 114 110 106 103 100 101 103 104 105 107 105 102 97 93 90 88 88 87 88 87 88 89 91 91 90 91 95 96 88 107 108 107 106 103 104 68 56 50 101 111 113 111 104 101 101 97 94 89 84 77 70
139 146 151 154 155 158 156 151 146 141 139 139 140 139 138 138 137 134 133 131 131 130 129 128 128 127 127 126 126 124 124 122 121 119 119 118 110 105 103 103 107 109 109 105 101 98 95 92 89 87 85 86 88 89 91 92 90 92 94 97 102 109 122 132 136 123 114 117 112 82 49 55 27 104 110 113 106 108 106 99 94 90 87 83 78
143 146 152 150 153 156 155 151 146 143 142 143 143 142 143 142 140 136 135 134 132 131 129 129 131 130 130 129 128 129 127 126 125 124 120 109 108 112 114 113 112 110 108 108 104 98 94 91 88 87 86 87 87 88 86 85 88 89 87 78 71 84 172 182 185 170 143 130 124 105 83 39 3 95 112 113 113 108 100 97 91 85 85 83 75
139 145 151 150 152 156 154 151 147 145 144 146 146 146 146 145 142 140 138 139 136 133 131 134 134 133 132 134 133 133 131 129 126 123 120 118 118 118 120 121 120 117 112 107 103 98 93 88 85 84 85 87 87 85 82 80 81 78 72 60 38 3 324 258 195 186 178 139 130 146 135 94 28 340 121 122 122 118 110 104 99 94 90 85 70
132 144 149 149 151 158 154 151 148 146 147 148 148 149 149 147 145 144 142 139 138 136 133 134 134 134 133 135 135 133 133 133 132 126 124 124 125 125 126 125 122 116 118 113 105 100 93 87 84 83 83 85 86 83 78 73 68 65 58 45 36 31 37 55 114 165 164 132 148 158 153 145 37 354 130 122 122 126 122 119 107 100 94 80 71
140 145 145 148 153 157 154 151 148 149 149 151 151 151 152 151 149 148 145 142 142 139 134 134 135 134 134 133 136 137 137 141 139 135 128 129 129 131 128 128 125 122 114 108 104 93 84 85 83 80 80 79 79 79 73 69 64 58 51 41 32 36 47 55 71 120 136 149 151 153 163 149 74 35 136 132 125 125 115 110 113 106 102 79 67
141 142 145 147 157 156 155 152 151 148 151 152 154 154 155 154 153 151 147 146 143 140 138 137 137 137 136 136 137 138 139 142 142 141 138 133 133 135 130 131 132 125 118 117 108 93 90 85 82 78 75 75 74 71 66 61 60 57 50 44 37 34 36 43 56 81 104 142 148 152 164 153 106 66 150 127 125 117 115 115 123 117 92 70 65
143 142 141 147 159 155 154 154 152 150 151 154 155 155 157 157 156 153 149 147 144 143 142 140 141 139 137 136 136 137 138 141 142 143 141 139 141 138 135 138 136 126 124 118 105 91 86 81 79 76 73 70 68 66 62 60 63 61 53 47 47 42 40 41 48 51 98 126 141 157 167 153 110 104 169 148 141 141 128 117 115 102 84 55 59
144 143 142 146 158 152 156 155 153 152 152 154 155 157 159 160 160 155 152 149 146 146 145 144 144 141 138 135 135 134 135 138 143 145 143 146 146 143 140 143 137 133 124 112 89 87 81 77 73 71 68 65 61 60 59 59 59 61 55 46 42 43 39 44 42 41 63 135 143 166 154 130 122 164 177 149 140 132 118 108 101 92 73 64 61
146 144 142 149 153 155 157 157 156 154 155 155 157 160 162 164 163 159 155 151 149 149 148 148 147 144 139 138 136 136 136 137 139 146 149 148 149 147 147 150 140 134 125 110 86 82 78 73 66 62 60 54 53 53 55 56 57 60 57 50 38 38 37 41 49 29 45 130 152 143 129 125 138 188 170 145 134 121 113 106 94 81 68 66 64
146 145 144 150 150 158 159 159 158 157 156 157 159 161 164 166 165 160 156 154 151 151 150 152 152 149 143 142 141 140 141 141 144 147 152 153 153 153 155 150 144 116 114 108 94 82 74 66 60 56 52 47 45 49 49 49 49 55 56 54 42 35 38 36 37 29 26 95 134 141 134 120 134 231 163 140 135 120 104 95 87 71 59 52 47
145 148 148 147 152 158 161 161 160 158 157 158 159 162 164 167 167 157 157 156 153 153 155 157 158 156 146 145 145 145 145 145 148 152 156 156 156 157 158 156 147 128 132 119 101 89 75 64 59 54 49 44 41 40 42 43 43 46 42 38 34 31 34 40 32 25 22 71 126 133 126 113 138 238 161 137 121 105 109 101 93 75 52 36 31
145 145 147 147 152 156 163 164 162 160 159 160 160 162 166 167 164 158 160 158 155 156 159 162 163 159 147 149 149 149 148 149 152 155 157 157 158 161 161 158 151 140 145 127 107 87 72 62 51 49 45 42 37 34 30 28 31 42 41 35 24 25 26 40 26 21 20 92 118 123 106 118 135 138 158 117 103 85 77 103 94 67 41 30 39
141 143 142 147 151 157 161 164 164 163 161 160 162 163 166 167 163 158 162 159 158 160 162 166 167 163 151 152 153 152 152 153 156 159 161 159 156 158 157 150 150 149 150 129 102 78 55 48 40 38 36 35 34 28 22 19 17 24 29 30 21 20 29 35 29 13 14 105 116 89 94 84 118 148 126 101 85 61 350 67 46 52 28 43 31
141 148 147 148 153 158 161 163 162 161 163 164 164 165 169 168 163 161 165 161 160 163 166 169 170 166 154 156 158 159 158 158 158 160 161 160 161 158 156 158 162 165 161 131 95 60 42 37 37 34 27 25 22 18 14 8 8 13 11 13 13 25 31 33 33 17 27 81 79 88 69 104 97 83 55 86 84 105 344 32 28 45 26 39 32
141 146 146 150 157 157 160 160 162 157 161 161 164 171 171 170 165 163 164 164 162 166 168 172 170 168 161 162 168 165 159 161 161 161 157 155 159 165 166 171 173 176 166 130 60 33 31 27 33 31 21 14 7 4 357 354 357 2 4 9 10 33 34 34 20 29 46 73 77 86 98 88 89 77 90 80 86 77 46 33 47 37 44 56 54
143 147 151 155 156 159 158 160 159 159 161 159 165 170 170 170 168 163 164 166 166 168 171 175 174 170 170 169 171 164 165 163 167 160 155 154 161 160 174 181 180 183 181 215 18 19 19 24 27 19 9 360 349 345 346 344 345 5 12 6 24 37 46 30 26 29 52 71 92 86 83 82 75 87 88 83 83 64 56 52 62 63 68 63 60
150 154 158 160 161 164 162 160 161 161 161 160 167 167 171 171 167 165 166 168 168 171 174 179 173 175 174 172 173 157 152 159 162 149 162 154 171 171 185 186 193 198 218 249 312 352 9 20 15 4 353 344 344 342 340 335 350 4 6 21 42 33 55 50 32 31 60 57 75 72 75 80 84 83 89 87 85 79 70 69 72 69 65 63 59
159 158 166 166 166 168 164 163 162 163 161 161 167 164 175 171 166 169 168 170 171 170 179 179 178 176 176 176 152 152 141 140 136 166 142 164 183 186 198 201 200 229 236 265 292 318 343 354 351 342 337 342 342 340 331 341 358 352 357 27 57 24 38 57 48 53 65 64 70 73 75 81 82 86 81 92 82 79 80 75 70 68 64 61 59
164 165 165 174 173 166 164 166 168 163 163 164 164 168 175 160 167 167 167 167 172 169 176 179 168 174 168 150 146 141 141 136 143 157 137 174 188 205 208 217 222 235 253 266 279 303 320 329 334 330 333 337 334 327 337 345 339 346 359 10 34 25 26 58 52 67 74 74 65 79 77 76 80 75 76 72 82 84 79 74 71 67 64 60 58
168 170 166 173 172 173 168 168 173 167 166 166 164 171 170 159 167 168 161 160 170 166 172 173 170 169 156 142 147 150 146 143 184 193 190 182 198 220 224 226 234 247 256 304 353 2 356 358 339 328 336 328 325 341 334 324 332 345 353 354 25 22 45 58 61 66 64 76 77 80 79 75 75 87 89 85 82 84 79 76 72 67 63 59 56
164 160 170 177 176 175 169 172 175 171 171 169 169 175 167 163 170 170 165 159 163 168 175 172 174 167 151 156 154 155 146 143 134 20 51 138 166 226 298 336 26 20 1 38 358 332 354 328 329 323 322 330 328 335 338 332 333 337 332 327 39 63 67 70 76 75 75 74 79 82 82 83 80 82 89 91 87 80 78 75 72 67 63 59 57
161 173 177 177 178 177 173 174 177 174 178 174 175 174 167 170 172 174 168 165 172 174 177 176 174 167 160 162 154 148 147 144 138 215 118 119 197 216 227 237 2 353 25 352 339 339 320 316 319 314 311 315 319 315 316 300 304 299 295 3 75 84 83 86 80 76 71 80 82 88 89 89 88 87 95 92 85 82 79 75 71 67 63 60 57
170 174 174 179 177 179 177 177 179 175 179 177 172 178 176 171 172 173 170 171 176 179 186 181 177 169 166 166 161 164 159 152 167 190 227 195 219 223 221 186 229 215 221 218 306 307 303 306 303 295 296 309 331 316 297 278 264 289 318 339 98 102 100 92 84 83 80 83 85 89 94 95 95 93 86 85 85 86 82 77 72 66 61 57 54
166 169 178 178 177 181 179 182 183 175 177 178 174 185 174 172 176 174 180 179 178 187 188 186 175 176 172 177 172 167 164 163 180 195 221 207 234 229 197 164 172 194 148 152 266 294 288 286 284 286 301 320 330 314 295 295 298 271 299 307 101 102 100 88 93 86 85 87 88 91 92 92 90 86 83 82 81 78 74 73 70 65 60 55 52
172 172 178 182 181 180 180 185 186 177 174 176 178 183 175 172 173 181 180 182 186 190 186 181 186 179 179 177 164 164 163 165 187 212 195 227 243 237 177 187 153 180 159 208 200 256 264 260 272 285 299 301 314 309 319 319 323 289 232 261 101 105 95 93 95 92 91 89 93 92 91 91 88 85 83 79 76 74 70 68 66 63 58 53 51
182 172 177 187 183 182 183 186 187 177 175 176 180 182 180 173 178 184 175 187 188 187 180 188 190 182 184 176 173 166 181 180 200 203 191 238 243 233 196 181 188 177 164 209 209 214 240 253 261 269 273 292 317 299 334 334 328 321 288 153 101 100 99 100 98 98 93 93 93 92 90 89 87 83 81 81 78 73 69 67 66 63 60 55 50
181 181 184 185 184 184 187 185 183 179 175 180 179 182 176 177 179 179 178 191 184 185 188 189 193 193 187 169 168 176 175 182 195 201 200 233 243 217 204 174 201 190 183 213 192 207 216 230 248 269 286 331 324 322 13 329 319 341 4 109 101 98 97 103 103 102 99 96 94 92 92 87 85 83 80 76 75 73 72 71 66 63 62 59 51
192 189 186 182 186 190 183 181 182 180 180 184 176 181 180 178 178 180 183 187 178 191 196 191 193 202 182 168 175 183 176 188 192 192 190 200 227 222 210 201 223 181 191 204 206 197 207 234 240 234 234 232 352 345 1 330 332 18 56 83 95 102 106 108 105 104 103 95 90 91 87 85 83 82 78 75 72 71 70 68 67 64 60 59 56
216 209 193 187 192 186 183 181 181 181 185 183 178 181 178 177 179 184 185 183 183 190 200 200 200 200 186 176 184 184 184 182 195 192 187 193 210 219 234 236 210 187 191 202 206 192 208 241 281 327 329 27 6 347 355 48 44 52 71 83 102 100 101 107 107 106 103 99 91 90 84 83 85 79 74 71 70 68 65 63 60 58 56 58 59
177 184 195 201 193 192 185 180 180 182 185 180 178 182 183 179 181 182 184 185 192 194 201 199 202 203 190 187 189 185 181 185 184 195 178 190 199 207 232 248 209 194 187 180 189 183 179 171 280 38 13 26 338 345 74 87 65 67 61 80 89 95 104 104 107 106 103 96 95 88 87 86 81 79 76 74 72 69 68 65 61 57 54 56 62
166 179 187 195 199 198 190 184 181 180 184 182 183 186 185 183 182 183 185 189 192 199 199 196 194 203 192 192 190 186 180 185 194 189 186 191 196 210 229 238 182 161 159 169 158 141 151 136 20 356 14 5 40 58 75 79 77 60 59 77 92 97 102 105 106 104 101 101 94 90 86 84 81 77 73 73 72 71 69 65 62 60 58 55 58
174 172 175 179 195 202 199 189 180 181 183 182 183 184 186 185 185 187 188 188 195 203 202 194 187 198 199 192 188 188 184 189 193 183 187 197 200 206 228 197 152 124 133 141 140 153 128 92 44 134 169 67 86 58 47 73 66 66 58 62 80 98 102 103 105 103 101 99 97 95 93 90 87 84 80 72 72 74 71 68 65 62 59 56 53
160 165 172 174 186 193 204 198 188 183 182 181 181 182 182 187 186 193 191 189 197 205 205 181 179 195 200 195 180 187 192 193 191 182 192 193 188 203 200 163 132 129 135 144 155 159 141 118 33 354 206 138 92 82 70 72 71 65 63 63 61 84 94 101 107 107 105 100 101 101 93 87 88 83 70 67 56 56 68 69 69 64 62 60 59
167 166 169 174 179 180 192 197 196 191 186 181 181 180 183 184 190 194 190 194 200 205 201 178 184 194 193 200 178 182 191 196 193 184 196 194 180 183 164 148 135 131 133 129 136 114 126 150 149 29 60 86 92 100 92 77 76 71 63 59 58 74 88 97 103 104 102 102 99 95 92 92 86 80 76 69 65 56 44 45 50 65 65 63 61
165 165 166 170 172 177 180 192 194 192 189 185 181 180 179 183 186 189 192 198 204 208 196 182 186 187 195 194 177 179 185 188 191 180 184 163 147 153 157 159 143 141 133 126 128 134 147 171 147 91 66 67 98 76 60 67 75 75 65 58 65 64 82 85 91 93 94 102 106 105 101 93 92 85 80 74 67 59 52 47 42 20 59 68 63
157 164 168 170 173 173 180 188 189 189 186 184 181 180 179 185 187 190 199 202 202 207 200 191 178 190 196 186 180 178 178 177 182 174 166 152 151 152 150 155 156 147 148 150 172 181 176 156 153 100 82 63 78 101 103 86 65 70 70 67 61 62 68 83 85 80 85 88 97 100 101 98 92 86 80 78 70 64 59 56 51 46 28 47 60
159 167 172 179 177 177 177 187 183 186 184 186 189 184 184 185 192 197 199 195 199 204 202 189 182 192 191 182 181 177 174 170 171 163 164 161 147 143 147 155 166 170 168 186 182 179 186 168 148 106 104 99 81 95 114 120 111 77 70 70 67 58 57 66 69 70 72 83 96 104 102 96 89 83 84 79 74 67 65 58 54 46 39 35 26
178 173 181 183 179 177 183 181 179 186 191 190 187 186 190 195 189 187 183 186 196 201 204 196 187 184 184 182 183 175 172 173 170 171 165 156 145 149 159 163 173 189 179 143 147 161 154 162 158 96 77 119 117 108 179 128 66 129 118 91 79 65 54 55 56 48 55 71 83 89 93 93 89 88 79 81 72 67 64 60 59 54 48 39 36
174 181 179 171 179 184 185 181 182 187 191 187 185 186 186 185 177 167 181 191 208 194 193 190 183 183 186 186 180 174 172 175 172 170 164 163 159 156 171 174 177 171 145 154 162 161 181 185 186 148 107 88 122 181 179 43 133 110 117 107 122 101 45 57 53 49 52 61 73 83 91 94 93 84 87 79 73 68 61 63 59 51 40 37 34
165 173 178 183 185 188 184 182 186 189 188 187 184 183 183 178 174 169 191 191 185 182 183 179 189 175 195 189 180 172 173 177 173 169 167 164 162 171 165 171 183 187 173 165 176 181 183 201 201 168 123 125 141 223 230 185 150 143 125 119 142 119 117 58 90 58 52 58 62 76 88 92 96 89 73 76 75 73 67 63 60 44 36 39 32
175 182 182 184 189 190 183 179 182 188 186 184 179 169 165 158 174 177 172 172 76 151 167 193 189 194 191 176 199 170 173 173 171 172 168 168 168 166 172 179 176 181 173 171 181 191 193 200 195 180 159 142 153 190 216 206 204 253 138 124 91 146 157 145 117 54 39 60 66 83 88 94 93 90 85 78 76 72 82 69 57 48 38 39 37
185 189 186 187 183 183 179 179 182 185 185 182 174 168 175 172 173 180 187 196 195 180 187 188 187 191 201 178 168 169 165 164 169 171 168 158 166 174 175 170 173 176 183 186 172 163 191 196 207 201 192 154 158 166 135 25 265 313 299 329 150 160 150 168 127 126 67 56 59 60 74 84 95 100 91 102 97 84 73 72 50 47 34 39 37
197 189 183 184 185 180 178 176 178 181 182 180 174 173 178 185 187 192 197 197 199 198 174 178 176 190 170 175 178 157 163 164 170 168 165 164 160 169 175 179 177 178 175 160 176 189 197 204 202 208 215 152 151 143 141 183 187 278 302 70 92 124 145 150 138 118 118 59 38 44 63 83 101 104 101 94 94 84 57 57 49 37 31 26 35
195 177 181 184 182 182 176 176 178 181 180 173 176 182 181 184 190 199 200 201 196 185 170 158 158 158 166 176 160 168 163 166 163 164 162 158 159 167 174 176 177 178 173 184 186 180 187 205 199 203 187 188 181 144 157 174 181 200 237 98 86 135 148 87 152 159 145 144 138 67 55 58 67 55 69 79 70 64 64 39 38 33 29 41 30
186 177 183 189 184 175 172 174 179 178 177 176 178 185 185 184 190 195 203 204 189 167 151 144 151 157 160 149 159 156 153 150 155 156 160 161 164 171 172 177 181 185 186 177 171 176 189 185 182 183 190 200 207 150 151 177 192 163 130 73 109 125 83 94 88 115 135 131 126 154 138 89 68 45 45 56 52 47 45 30 42 37 42 47 44
186 181 180 165 169 173 174 176 181 178 176 178 181 183 185 184 192 195 195 188 161 140 147 150 152 159 160 166 158 153 155 140 140 153 159 168 166 165 174 182 189 186 185 176 165 176 189 192 197 197 179 180 187 165 172 168 150 169 149 136 127 126 104 104 102 103 82 109 156 167 160 150 133 69 43 45 51 47 47 33 37 32 46 54 49
160 163 168 172 171 175 177 180 182 174 175 181 182 186 186 187 193 192 190 180 166 154 149 150 143 146 160 160 159 155 141 147 147 156 165 162 165 167 171 176 174 184 176 169 176 182 183 175 132 124 168 168 180 161 119 133 153 150 121 173 161 165 168 170 168 166 146 130 112 128 147 144 134 127 42 65 57 52 55 39 41 36 42 53 48